DMSP 5D-2 F13 DEB, 40511

Orbit data source: Space-Track

DMSP 5D-2 F13 DEB, 40511 is space debris in SSO originally from a launch on Fri, 24 Mar 1995 UTC launched from the Air Force Western Test Range (AFWTR). Debris objects in space refer to the collection of defunct objects orbiting the Earth. Examples of debris include non-operational satellites, rocket bodies, and fragments generated from explosions, collisions, or faulty payload assembly.

Loading next visibility...
Identifier
40511, 1995-015CX
Orbit
SSO
Country
Flag of USUS
Related business
Manufacturer
Unknown
Mission
Spacecraft
Bus & Motor
Unknown
Mass
Unknown
Launch date (UTC)
1995-03-24 (31 years ago)
Launch vehicle
Unknown
Launch site
Air Force Western Test Range (AFWTR)
Object type
Payload
Rocket body
Debris
Shape & HBR
Unknown shape, 0.1 m
Radar Cross Section
Small (<0.1 m²)

Expand to show TLE details & history
Last TLE update: 10 hours ago

TLE from 10 hours ago
0 DMSP 5D-2 F13 DEB
1 40511U 95015CX  26235.62367219  .00007025  00000-0  17797-2 0  9992
2 40511  98.7704 295.9877 0009607 345.8718  14.2205 14.51160441592594
Epoch: 2026-08-23T14:58Z
TLE epoch observation values (Epoch: 2026-08-23T14:58:05.277Z)
Latitude
-0.00004°
Longitude
99.54865°
Altitude
718.203 km
Speed
7.5 km/s
True Right ascension
19h 43m 57s
True Declination
0° 00' 00"
Sunlit
Object was in full shadow at epoch
Visualization orbit readout
Latitude
Unknown
Longitude
Unknown
Altitude
Unknown
Speed
Unknown
Apparent Right ascension
Unknown
Apparent Declination
Unknown
Sunlit
N/A
Visualization observer readout
Local Sidereal Time
16:03:02
Azimuth
Unknown
Elevation
Unknown
Doppler factor
Unknown
Orbital elements
Apogee altitude
725.799 km
Perigee altitude
712.163 km
Semi-major axis
7,097.118 km
Eccentricity
0.00096
Inclination
98.7704°
RAAN
295.9877°
Arg. of periapsis
345.8718°
True anomaly
14.24758°
Mean anomaly
14.2205°
Eccentric anomaly
14.23403°
Mean motion
3.63011 °/min
Orbital period
99.17 mins
BSTAR
0.0017797
Loading maneuver chart data...
Computing Atmospheric mass density...

Documentation

Showing up to 5 results
|